Home > Weather > Sacramento > Past weeks

Flag for USA Weather for the Past 2 Weeks in Sacramento, California, USA

Now
73 °F

Sunny.


Feels Like: 77 °F
Forecast: 59 / 78 °F
Wind: 5 mph from North

Location: Sacramento Executive Airport

Current Time: May 4, 2016 at 1:04:22 PM

Latest Report: May 4, 2016 at 11:53 AM


Visibility: 10 mi

Pressure: 29.83 "Hg

Humidity: 53%

Dew Point: 55 °F

Location of SacramentoLocation

Historic Weather in Sacramento — Graph

°F

Sacramento Temperature Yesterday

Maximum temperature yesterday: 84 °F (at 4:53 PM)
Minimum temperature yesterday: 53 °F (at 4:53 AM)
Average temperature yesterday: 68 °F

High & Low Weather Summary for the Past Weeks

 TemperatureHumidityPressure
High86 °F (Apr 19, 3:53 PM)97% (Apr 27, 11:53 PM)30.19 "Hg (Apr 27, 11:53 PM)
Low45 °F (Apr 23, 5:53 AM)15% (Apr 19, 4:53 PM)29.78 "Hg (Apr 30, 4:53 PM)
Average64 °F54%29.92 "Hg
* Reported Apr 19 10:53 AM — May 4 10:53 AM, Sacramento, Weather by CustomWeather, © 2016

Note: Actual official high and low records may vary slightly from our data, if they occured in-between our weather recording intervals... More about our weather records

Advertising

Sacramento Weather History for the Previous 24 Hours

Scroll right to see more
 ConditionsComfort  
Time TempWeatherWind HumidityBarometerVisibility
10:53 AM
Wed, May 4
69 °FSunny.6 mph61%29.84 "Hg10 mi
9:53 AM65 °FSunny.5 mph66%29.83 "Hg10 mi
8:53 AM62 °FSunny.3 mph70%29.83 "Hg10 mi
7:53 AM59 °FSunny.No wind78%29.83 "Hg10 mi
6:53 AM58 °FClear.3 mph78%29.82 "Hg10 mi
5:53 AM58 °FClear.5 mph78%29.81 "Hg10 mi
4:53 AM59 °FClear.6 mph75%29.81 "Hg10 mi
3:53 AM60 °FClear.5 mph72%29.82 "Hg10 mi
2:53 AM62 °FClear.5 mph67%29.83 "Hg10 mi
1:53 AM62 °FClear.3 mph67%29.86 "Hg10 mi
12:53 AM61 °FClear.3 mph70%29.85 "Hg10 mi
11:53 PM
Tue, May 3
63 °FClear.5 mph65%29.86 "Hg10 mi
10:53 PM65 °FClear.6 mph63%29.87 "Hg10 mi
9:53 PM66 °FClear.7 mph61%29.87 "Hg10 mi
8:53 PM71 °FSunny.5 mph57%29.86 "Hg10 mi
7:53 PM75 °FSunny.8 mph52%29.85 "Hg10 mi
6:53 PM81 °FSunny.No wind34%29.85 "Hg10 mi
5:53 PM83 °FSunny.5 mph30%29.86 "Hg10 mi
4:53 PM84 °FSunny.No wind30%29.88 "Hg10 mi
3:53 PM81 °FSunny.5 mph34%29.90 "Hg10 mi
2:53 PM81 °FSunny.No wind30%29.92 "Hg10 mi
1:53 PM80 °FSunny.No wind34%29.93 "Hg10 mi
Weather by CustomWeather, © 2016

See weather overviewHow to use our weather pages